Weather History for Grafton, ND

Change the Weather History Date:

Sunday, May 19, 2013

  Actual Average Record
Temperature  
Mean Temperature 52 °F -  
Max Temperature 55 °F 71 °F 90 °F (1980)
Min Temperature 50 °F 45 °F 26 °F (1965)
Degree Days  
Heating Degree Days 12    
Growing Degree Days 2 (Base 50)    
Moisture  
Dew Point 53 °F    
Average Humidity 100    
Maximum Humidity 100    
Minimum Humidity 100    
Precipitation  
Precipitation 0.00 in - - ()
Sea Level Pressure  
Sea Level Pressure 29.74 in    
Wind  
Wind Speed 17 mph (NE)    
Max Wind Speed 32 mph    
Max Gust Speed 45 mph    
Visibility 7 miles    
Events Rain    
Averages and records for this station are not official NWS values.
T = Trace of Precipitation, MM = Missing Value Source: NWS Daily Summary

Daily Weather History Graph

Daily Weather History Graph

Search for Another Location

Airport:

Trip Planner

Search our weather history database for the weather conditions in past years. The results will help you decide how hot, cold, wet, or windy it might be!

Date:

Astronomy

May. 19, 2013 Rise Set
Actual Time 5:44 AM CDT 9:08 PM CDT
Civil Twilight 5:05 AM CDT 9:47 PM CDT
Nautical Twilight 4:15 AM CDT 10:38 PM CDT
Astronomical Twilight 3:08 AM CDT 11:45 PM CDT
Moon 2:47 PM CDT (5/19) 2:37 AM CDT (5/19)
Length of Visible Light 16h 41m
Length of Day
15h 24m
Waxing Gibbous, 65% of the Moon is Illuminated
May 19
Waxing Gibbous
May 24
Full
May 31
Last Quarter
Jun 8
New
Jun 16
First Quarter

Hourly Weather History & Observations

Time (CDT) Temp. Dew Point Humidity Pressure Visibility Wind Dir Wind Speed Gust Speed Precip Events Conditions
12:15 AM 51.8 °F 51.8 °F 100% 29.85 in 10.0 mi NNE 11.5 mph - N/A   Overcast
12:35 AM 51.8 °F 51.8 °F 100% 29.85 in 10.0 mi North 11.5 mph - N/A   Overcast
12:55 AM 51.8 °F 51.8 °F 100% 29.86 in 10.0 mi NNE 11.5 mph - N/A   Overcast
1:15 AM 51.8 °F 51.8 °F 100% 29.85 in 10.0 mi NNE 12.7 mph - N/A   Overcast
1:35 AM 51.8 °F 51.8 °F 100% 29.85 in 10.0 mi NNE 12.7 mph - N/A   Overcast
1:55 AM 50.0 °F 50.0 °F 100% 29.83 in 10.0 mi NNE 16.1 mph - N/A   Overcast
2:15 AM 50.0 °F 50.0 °F 100% 29.82 in 10.0 mi NNE 11.5 mph - N/A   Overcast
2:35 AM 50.0 °F 50.0 °F 100% 29.79 in 10.0 mi NNE 16.1 mph - N/A   Overcast
2:55 AM 50.0 °F 50.0 °F 100% 29.81 in 10.0 mi North 15.0 mph - N/A   Overcast
3:15 AM 50.0 °F 50.0 °F 100% 29.82 in 10.0 mi NNE 12.7 mph - N/A   Overcast
3:35 AM 50.0 °F 50.0 °F 100% 29.82 in 10.0 mi NNE 12.7 mph 18.4 mph N/A   Overcast
3:55 AM 50.0 °F 50.0 °F 100% 29.82 in 9.0 mi NNE 13.8 mph - N/A   Overcast
4:15 AM 50.0 °F 50.0 °F 100% 29.83 in 8.0 mi NNE 11.5 mph - N/A   Overcast
4:35 AM 50.0 °F 50.0 °F 100% 29.81 in 7.0 mi NNE 12.7 mph 19.6 mph N/A   Overcast
4:55 AM 50.0 °F 50.0 °F 100% 29.82 in 4.0 mi NNE 11.5 mph - N/A   Overcast
5:15 AM 50.0 °F 50.0 °F 100% 29.82 in 5.0 mi NNE 12.7 mph - N/A Rain Light Rain
5:35 AM 50.0 °F 50.0 °F 100% 29.81 in 3.0 mi North 11.5 mph - N/A Rain Light Rain
5:55 AM 50.0 °F 50.0 °F 100% 29.80 in 2.5 mi NNE 10.4 mph - N/A Rain Heavy Rain
6:15 AM 50.0 °F 50.0 °F 100% 29.78 in 3.0 mi NNE 16.1 mph - N/A Rain Rain
6:35 AM 50.0 °F 50.0 °F 100% 29.74 in 4.0 mi NNE 21.9 mph 26.5 mph N/A Rain Light Rain
7:15 AM 51.8 °F 51.8 °F 100% 29.78 in 6.0 mi NE 12.7 mph - N/A Rain Light Rain
7:35 AM 51.8 °F 51.8 °F 100% 29.78 in 4.0 mi NE 15.0 mph - N/A Rain Light Rain
7:55 AM 51.8 °F 51.8 °F 100% 29.76 in 3.0 mi NE 15.0 mph - N/A Rain Light Rain
8:15 AM 51.8 °F 51.8 °F 100% 29.76 in 1.8 mi NE 17.3 mph - N/A Rain Heavy Rain
8:35 AM 51.8 °F 51.8 °F 100% 29.75 in 2.5 mi NE 17.3 mph - N/A Rain Rain
8:55 AM 51.8 °F 51.8 °F 100% 29.75 in 1.5 mi NE 15.0 mph - N/A Rain Rain
9:15 AM 53.6 °F 53.6 °F 100% 29.73 in 1.8 mi NE 19.6 mph 24.2 mph N/A Rain Rain
9:55 AM 53.6 °F 53.6 °F 100% 29.72 in 4.0 mi ENE 18.4 mph 26.5 mph N/A Rain Light Rain
10:15 AM 53.6 °F 53.6 °F 100% 29.72 in 3.0 mi ENE 18.4 mph 25.3 mph N/A Rain Light Rain
10:35 AM 53.6 °F 53.6 °F 100% 29.70 in 2.5 mi ENE 20.7 mph 26.5 mph N/A Rain Light Rain
10:55 AM 55.4 °F 55.4 °F 100% 29.69 in 4.0 mi NE 20.7 mph 28.8 mph N/A Rain Light Rain
11:15 AM 55.4 °F 55.4 °F 100% 29.69 in 4.0 mi NE 24.2 mph 31.1 mph N/A Rain Light Rain
11:35 AM 55.4 °F 55.4 °F 100% 29.72 in 3.0 mi ENE 18.4 mph 26.5 mph N/A Rain Light Rain
11:55 AM 55.4 °F 55.4 °F 100% 29.68 in 3.0 mi NE 23.0 mph 32.2 mph N/A Rain Light Rain
12:15 PM 55.4 °F 55.4 °F 100% 29.68 in 3.0 mi ENE 24.2 mph 31.1 mph N/A Rain Light Rain
12:35 PM 55.4 °F 55.4 °F 100% 29.69 in 2.5 mi ENE 21.9 mph 26.5 mph N/A Rain Light Rain
12:55 PM 55.4 °F 55.4 °F 100% 29.68 in 3.0 mi ENE 23.0 mph 28.8 mph N/A Rain Light Rain
1:15 PM 55.4 °F 55.4 °F 100% 29.69 in 1.8 mi ENE 21.9 mph 27.6 mph N/A Rain Light Rain
1:35 PM 55.4 °F 55.4 °F 100% 29.70 in 1.5 mi East 23.0 mph 29.9 mph N/A Rain Light Rain
2:15 PM 55.4 °F 55.4 °F 100% 29.70 in 10.0 mi ENE 18.4 mph 27.6 mph N/A   Overcast
2:35 PM 55.4 °F 55.4 °F 100% 29.71 in 10.0 mi ENE 19.6 mph 25.3 mph N/A   Overcast
3:15 PM 55.4 °F 55.4 °F 100% 29.70 in 10.0 mi ENE 23.0 mph 33.4 mph N/A   Overcast
3:35 PM 55.4 °F 55.4 °F 100% 29.69 in 10.0 mi ENE 27.6 mph 33.4 mph N/A   Overcast
3:55 PM 55.4 °F 55.4 °F 100% 29.68 in 10.0 mi ENE 23.0 mph 33.4 mph N/A   Overcast
4:15 PM 55.4 °F 55.4 °F 100% 29.69 in 10.0 mi ENE 25.3 mph 32.2 mph N/A   Overcast
4:35 PM 55.4 °F 55.4 °F 100% 29.69 in 10.0 mi ENE 24.2 mph 31.1 mph N/A   Overcast
4:55 PM 55.4 °F 55.4 °F 100% 29.69 in 9.0 mi ENE 23.0 mph 32.2 mph N/A Rain Light Rain
5:15 PM 55.4 °F 55.4 °F 100% 29.68 in 10.0 mi ENE 24.2 mph 35.7 mph N/A   Overcast
5:35 PM 55.4 °F 55.4 °F 100% 29.68 in 10.0 mi ENE 26.5 mph 34.5 mph N/A   Overcast
6:15 PM 55.4 °F 55.4 °F 100% 29.66 in 10.0 mi ENE 26.5 mph 35.7 mph N/A   Overcast
6:35 PM 53.6 °F 53.6 °F 100% 29.67 in 3.0 mi ENE 24.2 mph 34.5 mph N/A Rain Light Rain
6:55 PM 53.6 °F 53.6 °F 100% 29.67 in 3.0 mi ENE 27.6 mph 40.3 mph N/A   Overcast
7:15 PM 53.6 °F 53.6 °F 100% 29.67 in 10.0 mi ENE 27.6 mph 40.3 mph N/A Rain Light Rain
7:35 PM 53.6 °F 53.6 °F 100% 29.68 in 10.0 mi East 32.2 mph 44.9 mph N/A   Overcast
7:55 PM 53.6 °F 53.6 °F 100% 29.68 in 10.0 mi East 27.6 mph 38.0 mph N/A   Overcast
8:15 PM 53.6 °F 53.6 °F 100% 29.69 in 9.0 mi East 25.3 mph 35.7 mph N/A   Overcast
8:35 PM 53.6 °F 53.6 °F 100% 29.69 in 8.0 mi East 27.6 mph 36.8 mph N/A Rain Light Rain
8:55 PM 53.6 °F 53.6 °F 100% 29.70 in 10.0 mi ENE 21.9 mph 31.1 mph N/A   Overcast
9:15 PM 51.8 °F 51.8 °F 100% 29.69 in 10.0 mi ENE 20.7 mph 28.8 mph N/A   Overcast
9:35 PM 53.6 °F 53.6 °F 100% 29.69 in 8.0 mi East 19.6 mph 25.3 mph N/A Rain Light Rain
9:55 PM 53.6 °F 53.6 °F 100% 29.69 in 8.0 mi ENE 20.7 mph 29.9 mph N/A Rain Light Rain
10:15 PM 53.6 °F 53.6 °F 100% 29.69 in 10.0 mi ENE 20.7 mph - N/A   Overcast
10:35 PM 53.6 °F 53.6 °F 100% 29.70 in 10.0 mi East 19.6 mph 26.5 mph N/A   Overcast
10:55 PM 51.8 °F 51.8 °F 100% 29.70 in 10.0 mi East 23.0 mph 27.6 mph N/A   Overcast
11:15 PM 53.6 °F 53.6 °F 100% 29.70 in 10.0 mi ENE 23.0 mph 32.2 mph N/A   Overcast
11:35 PM 53.6 °F 53.6 °F 100% 29.68 in 10.0 mi ENE 26.5 mph 31.1 mph N/A   Overcast
11:55 PM 53.6 °F 53.6 °F 100% 29.68 in 8.0 mi ENE 23.0 mph 31.1 mph N/A Rain Light Rain